RYR167B LIRI-LIRN

Flight info

Callsign RYR167B
Flight time 0h 25m
Altitude 20000
Route SOR
Aircraft B738/M-SDE2E3FGHIRWXY/LB1

Departure

Time 2026-04-25 12:44
Airport Salerno Costa d'Amalfi Airport (LIRI)

Arrival

Time 2026-04-25 13:10
Airport Naples International Airport (LIRN)
Time Latitude Longitude Altitude Speed Heading
2026-04-25 12:29 40.61993 14.91909 122 ft 0 kts 141°
2026-04-25 12:35 40.61999 14.91903 118 ft 2 kts 172°
2026-04-25 12:35 40.62015 14.91905 127 ft 2 kts 202°
2026-04-25 12:36 40.62030 14.91915 121 ft 2 kts 219°
2026-04-25 12:36 40.62042 14.91930 120 ft 2 kts 227°
2026-04-25 12:36 40.62052 14.91945 120 ft 2 kts 232°
2026-04-25 12:36 40.62056 14.91951 124 ft 0 kts 233°
2026-04-25 12:39 40.62040 14.91924 125 ft 10 kts 233°
2026-04-25 12:40 40.62024 14.91892 122 ft 0 kts 241°
2026-04-25 12:40 40.62024 14.91885 121 ft 3 kts 266°
2026-04-25 12:40 40.62051 14.91852 123 ft 8 kts 348°
2026-04-25 12:41 40.62100 14.91880 126 ft 8 kts 18°
2026-04-25 12:41 40.62150 14.91903 128 ft 7 kts 20°
2026-04-25 12:41 40.62190 14.91943 127 ft 7 kts 45°
2026-04-25 12:41 40.62235 14.91966 132 ft 8 kts 353°
2026-04-25 12:42 40.62279 14.91903 132 ft 12 kts 279°
2026-04-25 12:42 40.62285 14.91826 132 ft 13 kts 282°
2026-04-25 12:42 40.62272 14.91723 125 ft 0 kts 231°
2026-04-25 12:43 40.62266 14.91712 125 ft 8 kts 231°
2026-04-25 12:44 40.62006 14.91274 116 ft 122 kts 232°
2026-04-25 12:44 40.61342 14.90136 827 ft 175 kts 233°
2026-04-25 12:44 40.59738 14.87567 2227 ft 179 kts 230°
2026-04-25 12:45 40.58858 14.86173 2500 ft 217 kts 230°
2026-04-25 12:45 40.57833 14.84562 2977 ft 237 kts 230°
2026-04-25 12:45 40.55635 14.81097 4356 ft 263 kts 230°
2026-04-25 12:46 40.54430 14.79193 5168 ft 276 kts 230°
2026-04-25 12:46 40.53195 14.77242 6296 ft 278 kts 231°
2026-04-25 12:46 40.51947 14.75269 7344 ft 282 kts 231°
2026-04-25 12:46 40.50703 14.73303 8390 ft 286 kts 231°
2026-04-25 12:47 40.49422 14.71277 9431 ft 291 kts 231°
2026-04-25 12:47 40.48120 14.69221 10442 ft 295 kts 231°
2026-04-25 12:47 40.46764 14.67079 10794 ft 313 kts 231°
2026-04-25 12:47 40.45375 14.64889 10717 ft 308 kts 231°
2026-04-25 12:48 40.44020 14.62756 10673 ft 301 kts 231°
2026-04-25 12:48 40.42694 14.60666 10667 ft 294 kts 232°
2026-04-25 12:48 40.41764 14.58337 10659 ft 288 kts 257°
2026-04-25 12:48 40.41728 14.55741 10671 ft 288 kts 283°
2026-04-25 12:49 40.42507 14.53330 10686 ft 289 kts 306°
2026-04-25 12:49 40.43854 14.51364 10679 ft 290 kts 316°
2026-04-25 12:49 40.45319 14.49551 10659 ft 288 kts 318°
2026-04-25 12:49 40.46784 14.47770 10648 ft 285 kts 318°
2026-04-25 12:50 40.47742 14.46599 10660 ft 283 kts 318°
2026-04-25 12:50 40.49672 14.44217 10662 ft 286 kts 317°
2026-04-25 12:50 40.51120 14.42411 10669 ft 287 kts 317°
2026-04-25 12:50 40.52543 14.40625 10664 ft 287 kts 317°
2026-04-25 12:51 40.53989 14.38807 10664 ft 288 kts 317°
2026-04-25 12:51 40.55465 14.37035 10654 ft 287 kts 325°
2026-04-25 12:51 40.57284 14.36039 10660 ft 285 kts 352°
2026-04-25 12:51 40.59243 14.36204 10674 ft 284 kts 17°
2026-04-25 12:52 40.60978 14.37426 10662 ft 285 kts 40°
2026-04-25 12:52 40.62379 14.39278 10661 ft 285 kts 47°
2026-04-25 12:52 40.63710 14.41224 10662 ft 286 kts 47°
2026-04-25 12:52 40.65043 14.43172 10660 ft 286 kts 47°
2026-04-25 12:53 40.66383 14.45104 10672 ft 285 kts 47°
2026-04-25 12:53 40.67726 14.47028 10661 ft 285 kts 46°
2026-04-25 12:53 40.69055 14.48926 10652 ft 285 kts 46°
2026-04-25 12:53 40.70377 14.50861 10652 ft 284 kts 47°
2026-04-25 12:54 40.71679 14.52818 10653 ft 283 kts 48°
2026-04-25 12:54 40.72976 14.54776 10662 ft 283 kts 48°
2026-04-25 12:54 40.74271 14.56726 10657 ft 282 kts 48°
2026-04-25 12:54 40.75564 14.58670 10644 ft 282 kts 48°
2026-04-25 12:55 40.76855 14.60612 10644 ft 281 kts 48°
2026-04-25 12:55 40.77710 14.61896 10652 ft 281 kts 48°
2026-04-25 12:55 40.79742 14.63994 10659 ft 279 kts 20°
2026-04-25 12:55 40.81651 14.64352 10665 ft 280 kts 354°
2026-04-25 12:56 40.83525 14.63642 10635 ft 284 kts 334°
2026-04-25 12:56 40.85233 14.62337 10668 ft 283 kts 328°
2026-04-25 12:56 40.86890 14.60938 10646 ft 282 kts 329°
2026-04-25 12:56 40.88694 14.60108 10656 ft 279 kts 355°
2026-04-25 12:57 40.90599 14.60491 10650 ft 280 kts 23°
2026-04-25 12:57 40.92194 14.61937 10652 ft 281 kts 45°
2026-04-25 12:57 40.93341 14.64030 10663 ft 282 kts 57°
2026-04-25 12:57 40.94353 14.66252 10659 ft 283 kts 58°
2026-04-25 12:58 40.95367 14.68491 10631 ft 284 kts 58°
2026-04-25 12:58 40.96394 14.70727 10666 ft 285 kts 57°
2026-04-25 12:58 40.97437 14.72973 10629 ft 286 kts 57°
2026-04-25 12:58 40.98480 14.75218 10641 ft 286 kts 57°
2026-04-25 12:59 40.99525 14.77454 10624 ft 286 kts 57°
2026-04-25 12:59 41.00569 14.79689 10627 ft 286 kts 57°
2026-04-25 12:59 41.01614 14.81931 10634 ft 285 kts 57°
2026-04-25 12:59 41.02709 14.84111 10619 ft 282 kts 46°
2026-04-25 13:00 41.04254 14.85588 10627 ft 269 kts 21°
2026-04-25 13:00 41.04849 14.85852 10627 ft 265 kts 13°
2026-04-25 13:00 41.07763 14.85616 10526 ft 249 kts 338°
2026-04-25 13:00 41.09267 14.84550 10436 ft 242 kts 329°
2026-04-25 13:01 41.10672 14.83349 10252 ft 240 kts 321°
2026-04-25 13:01 41.11644 14.81570 10006 ft 242 kts 291°
2026-04-25 13:01 41.11833 14.79379 9751 ft 243 kts 263°
2026-04-25 13:01 41.11261 14.77274 9516 ft 244 kts 243°
2026-04-25 13:02 41.10375 14.75349 9219 ft 245 kts 238°
2026-04-25 13:02 41.09449 14.73447 8969 ft 245 kts 239°
2026-04-25 13:02 41.08532 14.71540 8731 ft 245 kts 239°
2026-04-25 13:02 41.07627 14.69635 8497 ft 243 kts 240°
2026-04-25 13:03 41.06742 14.67757 8289 ft 243 kts 240°
2026-04-25 13:03 41.05876 14.65869 8169 ft 236 kts 242°
2026-04-25 13:03 41.05044 14.63968 7789 ft 242 kts 241°
2026-04-25 13:03 41.04159 14.62028 7415 ft 249 kts 240°
2026-04-25 13:04 41.03236 14.60059 6939 ft 253 kts 240°
2026-04-25 13:04 41.02302 14.58087 6463 ft 251 kts 240°
2026-04-25 13:04 41.01381 14.56148 5839 ft 251 kts 238°
2026-04-25 13:04 41.00441 14.54159 4973 ft 257 kts 238°
2026-04-25 13:05 40.99494 14.52182 4469 ft 250 kts 237°
2026-04-25 13:05 40.98590 14.50292 4096 ft 236 kts 237°
2026-04-25 13:05 40.97742 14.48499 3738 ft 222 kts 238°
2026-04-25 13:05 40.96946 14.46814 3423 ft 209 kts 238°
2026-04-25 13:06 40.96447 14.45753 3221 ft 202 kts 238°
2026-04-25 13:06 40.95720 14.44204 2937 ft 193 kts 238°
2026-04-25 13:06 40.94796 14.42243 2586 ft 187 kts 238°
2026-04-25 13:06 40.94336 14.41264 2394 ft 185 kts 238°
2026-04-25 13:07 40.93665 14.39835 2112 ft 178 kts 238°
2026-04-25 13:07 40.93042 14.38506 1873 ft 162 kts 238°
2026-04-25 13:07 40.92472 14.37315 1647 ft 143 kts 239°
2026-04-25 13:07 40.91987 14.36279 1432 ft 124 kts 238°
2026-04-25 13:08 40.91550 14.35341 1261 ft 118 kts 236°
2026-04-25 13:08 40.91103 14.34391 1064 ft 123 kts 234°
2026-04-25 13:08 40.90663 14.33460 911 ft 122 kts 237°
2026-04-25 13:08 40.90239 14.32509 687 ft 116 kts 233°
2026-04-25 13:09 40.89791 14.31593 530 ft 125 kts 234°
2026-04-25 13:09 40.89323 14.30595 326 ft 123 kts 234°
2026-04-25 13:09 40.88903 14.29706 249 ft 101 kts 233°
2026-04-25 13:09 40.88584 14.29038 267 ft 68 kts 238°
2026-04-25 13:10 40.88414 14.28675 279 ft 29 kts 238°
2026-04-25 13:10 40.88320 14.28515 284 ft 22 kts 224°
2026-04-25 13:10 40.88206 14.28405 287 ft 19 kts 209°
2026-04-25 13:10 40.88130 14.28351 294 ft 10 kts 208°
2026-04-25 13:11 40.88120 14.28345 293 ft 0 kts 208°
2026-04-25 13:11 40.88118 14.28343 293 ft 2 kts 208°
2026-04-25 13:11 40.88085 14.28318 294 ft 10 kts 214°
2026-04-25 13:11 40.88066 14.28263 296 ft 10 kts 259°
2026-04-25 13:12 40.88025 14.28151 295 ft 14 kts 227°
2026-04-25 13:12 40.87943 14.28088 298 ft 14 kts 220°
2026-04-25 13:12 40.87883 14.27995 302 ft 13 kts 231°
2026-04-25 13:12 40.87843 14.27935 303 ft 13 kts 219°
2026-04-25 13:13 40.87730 14.27935 305 ft 12 kts 173°
2026-04-25 13:13 40.87692 14.27941 306 ft 0 kts 172°